Regional Weather Roundup
Issued by NWS Goodland, KS

Home | Current Version | Previous Version | Text Only | Print | Product List | Glossary On
Versions: 1 2 3 4 5 6 7 8 9 10 11 12 13 14 15 16 17 18 19 20 21 22 23 24 25 26 27 28 29 30 31 32 33 34 35 36 37 38 39 40 41 42 43 44 45 46 47 48 49 50
000
ASUS43 KGLD 011108
RWRGLD

GOODLAND FORECAST AREA HOURLY WEATHER ROUNDUP
NATIONAL WEATHER SERVICE GOODLAND KS
500 AM MDT WED OCT 01 2014

...OFFICIAL OBSERVATIONS...

CITY           SKY/WX    TMP DP  RH WIND       PRES   REMARKS
GOODLAND KS    CLEAR     47  43  86 NW7       29.82R
HILL CITY KS   FOG       62  61  96 N3        29.73S VSB 1/4
IMPERIAL NEB   CLEAR     52  45  77 NW8       29.80R
MCCOOK NEB     PTCLDY    50  49  96 W7        29.76S
AKRON CO       CLEAR     48  39  71 N13       29.85S
BURLINGTON CO  CLEAR     47  42  83 NW8       29.84R
LIMON CO       CLEAR     40  38  93 N8        29.89S
$$

...UNOFFICIAL OBSERVATIONS...

CITY           SKY/WX    TMP DP  RH WIND       PRES   REMARKS
COLBY KS       CLEAR     52  48  87 NW7       29.79S
GOVE KS          N/A     50  32  50 MISG        N/A
NORTON KS      FOG       59  55  88 NW3       29.74R VSB 1/2
SHARON SPRINGS   N/A     48  44  85 NW5         N/A
TRIBUNE KS     CLEAR     54  48  82 NW9       29.82R
WAKEENEY KS      N/A     59  58  97 MISG        N/A
TRENTON NEB      N/A     51  32  48 NW9         N/A
KIT CARSON CO    N/A     50  42  72 MISG        N/A
YUMA CO          N/A     46  41  84 W6          N/A
$$



USA.gov is the U.S. government's official web portal to all federal, state and local government web resources and services.